Wetbulb
67.87 67.36 66.00 65.73 65.58 65.68 65.89 66.00 66.25 66.22 66.13 66.07 66.18 66.46 66.63 67.02 67.03 66.63 66.63 66.63 66.25 67.17 66.86 66.21 65.88 66.83 67.39 68.22 68.07 67.71 67.48 67.20 67.48
67.87 67.62 66.49 65.93 65.76 65.78 66.36 66.60 66.65 66.65 66.67 66.83 66.86 66.59 66.67 66.15 66.94 66.85 67.00 67.35 66.96 67.96 68.30 67.85 67.81 67.24 67.41 67.64 67.79 67.79 68.11 68.24 67.11
68.66 68.23 67.26 66.40 66.13 66.15 66.32 67.16 67.41 67.20 67.11 67.47 67.61 67.50 67.57 66.55 66.37 66.11 66.14 66.92 67.65 68.75 68.97 68.83 68.97 68.90 68.68 68.28 68.37 68.74 68.19 67.97 67.83
69.61 68.91 67.82 67.01 66.73 66.81 67.23 67.71 68.10 67.82 67.89 67.29 66.36 66.24 66.69 66.20 66.21 66.27 65.66 66.40 67.67 68.27 67.74 67.88 67.86 68.27 68.31 68.61 68.38 68.59 69.15 69.24 69.11
69.99 69.16 68.38 67.60 67.38 67.58 67.44 67.27 66.85 66.67 65.72 64.11 63.15 63.82 65.49 65.80 65.37 64.96 62.50 65.67 66.59 66.49 66.67 66.16 66.60 67.80 67.75 67.83 68.05 68.12 68.28 68.27 68.10
67.53 67.30 68.31 67.64 67.07 66.46 66.31 65.13 64.86 62.93 61.70 59.43 59.59 60.99 62.91 62.85 62.76 62.69 62.94 63.93 64.76 65.59 64.40 66.23 66.11 65.54 65.48 65.39 65.58 65.81 65.74 65.56 65.22
66.73 66.13 66.33 66.03 65.56 65.33 62.45 59.71 59.15 60.12 62.84 61.73 60.57 61.17 60.70 60.59 60.23 58.92 60.30 61.64 62.26 63.28 64.02 63.63 62.74 62.40 62.47 63.08 63.10 63.00 63.02 63.09 62.92
64.79 65.44 64.72 65.57 63.67 64.53 62.14 61.04 61.41 60.47 59.79 59.81 58.92 56.42 56.42 56.88 56.63 56.93 58.31 60.37 60.72 61.87 62.58 60.90 60.55 60.60 60.79 61.15 60.67 60.49 60.72 61.10 61.02
64.51 65.11 66.14 66.08 65.12 62.17 60.11 60.49 59.16 57.87 56.39 55.06 53.63 52.88 54.16 54.03 54.22 54.01 55.28 56.97 59.87 61.04 59.34 58.76 58.41 58.38 58.84 59.11 58.54 58.28 58.64 59.07 59.19
65.37 65.80 65.07 62.51 61.07 59.63 60.21 59.00 57.28 55.00 52.77 52.44 52.01 51.06 52.33 51.84 52.24 53.82 56.04 56.43 56.79 57.18 56.71 55.98 55.64 55.63 55.85 56.10 56.35 56.18 56.45 57.07 57.07
66.08 63.59 60.87 58.08 57.83 57.89 57.82 55.42 53.16 51.91 51.00 50.49 50.51 50.02 50.77 50.13 50.95 51.58 51.64 52.94 53.51 53.77 53.26 52.76 52.53 52.61 53.21 53.88 54.25 54.37 54.71 55.39 55.54
64.01 60.63 57.50 55.80 55.51 54.92 54.67 52.38 51.54 51.17 50.48 49.99 49.60 49.70 49.02 49.68 49.25 50.15 51.03 49.57 50.27 50.10 49.56 49.41 49.81 50.44 51.53 52.50 52.99 53.38 53.42 53.85 54.18
61.67 57.81 54.81 54.81 54.25 54.30 52.29 51.47 50.86 50.07 49.52 48.76 49.64 49.07 49.14 48.97 48.22 48.84 48.97 48.94 47.93 47.76 46.16 45.83 46.98 47.24 49.12 51.02 51.91 52.07 52.08 52.33 52.39
58.80 55.72 55.31 54.39 53.14 52.01 50.39 49.53 48.89 48.43 48.53 47.73 48.25 49.08 48.74 49.47 47.59 47.41 47.54 47.34 47.11 46.92 46.02 43.74 45.92 45.65 47.20 48.56 50.09 50.61 50.73 50.85 51.39
57.63 54.97 53.47 52.69 51.50 50.11 49.57 48.49 47.88 46.72 46.30 45.80 46.83 48.85 48.87 49.51 48.37 47.25 46.48 46.56 45.92 46.26 46.45 46.04 45.84 46.44 46.09 46.93 47.65 47.97 49.33 49.52 49.69
53.50 51.48 50.41 51.74 50.64 49.62 48.90 47.56 47.01 45.79 45.69 46.51 47.65 48.04 46.88 46.33 47.39 47.97 46.88 46.60 45.88 45.36 45.34 44.32 43.80 43.45 45.31 45.49 45.14 46.74 47.03 48.09 48.80
50.70 50.10 48.63 50.17 48.84 48.05 47.55 47.58 45.84 45.07 44.88 42.47 44.76 43.53 44.55 45.37 46.29 46.69 44.70 44.36 45.15 44.34 43.75 42.85 42.69 42.69 42.34 43.11 44.22 44.01 45.14 47.04 48.04
50.15 49.86 49.73 49.63 49.48 47.62 47.26 46.63 45.77 44.34 44.13 43.25 41.00 41.15 40.63 40.20 45.20 44.61 44.51 43.46 43.75 43.08 42.95 42.50 42.22 41.93 41.45 42.17 42.27 42.68 43.37 45.15 47.53
48.33 48.00 47.64 48.38 48.11 46.62 45.75 45.26 44.76 44.65 42.33 43.48 41.71 41.44 39.99 37.10 36.44 43.12 42.92 43.43 40.90 41.97 42.23 41.72 41.34 41.20 41.07 41.90 42.29 42.57 42.41 44.57 46.82
46.74 47.07 47.50 47.21 47.25 45.58 44.31 43.99 43.34 42.90 41.68 41.14 40.66 40.63 40.54 39.80 36.95 34.46 38.22 40.72 41.57 41.60 41.46 40.85 40.73 40.55 40.67 40.25 40.75 41.85 42.49 44.51 45.83
MSLP
1014.44 1014.82 1015.10 1015.25 1015.31 1015.39 1015.42 1015.49 1015.54 1015.59 1015.64 1015.63 1015.64 1015.65 1015.68 1015.45 1014.69 1014.83 1014.97 1014.97 1015.45 1015.49 1015.35 1015.24 1015.21 1015.21 1015.14 1015.01 1015.22 1015.34 1015.33 1015.23 1015.18
1014.58 1014.91 1015.21 1015.39 1015.47 1015.56 1015.61 1015.62 1015.67 1015.74 1015.72 1015.76 1015.74 1015.68 1015.70 1015.29 1014.56 1014.57 1014.75 1015.02 1015.45 1015.46 1015.26 1015.09 1015.09 1015.11 1015.16 1014.94 1014.96 1015.06 1015.07 1014.99 1014.95
1014.60 1014.97 1015.23 1015.52 1015.66 1015.73 1015.76 1015.75 1015.75 1015.82 1015.76 1015.70 1015.69 1015.64 1015.63 1015.03 1014.77 1014.82 1014.82 1015.36 1015.40 1015.28 1015.20 1015.01 1014.99 1014.95 1014.95 1014.81 1014.79 1014.85 1014.84 1014.79 1014.80
1014.46 1014.95 1015.30 1015.53 1015.67 1015.79 1015.87 1015.82 1015.75 1015.82 1015.81 1015.86 1015.76 1015.69 1015.49 1015.13 1014.50 1014.73 1014.94 1015.56 1015.30 1015.19 1015.19 1015.01 1014.96 1014.98 1014.85 1014.78 1014.70 1014.72 1014.62 1014.48 1014.53
1014.66 1015.05 1015.33 1015.56 1015.74 1015.85 1015.91 1015.90 1015.95 1015.96 1015.90 1015.99 1015.84 1015.63 1015.32 1014.80 1014.77 1014.76 1015.75 1015.73 1015.42 1015.44 1015.39 1015.43 1015.19 1015.26 1015.15 1014.98 1014.80 1014.78 1014.69 1014.58 1014.57
1014.80 1015.16 1015.37 1015.64 1015.85 1015.98 1016.00 1016.04 1016.01 1016.06 1016.08 1016.01 1015.86 1015.60 1014.98 1014.92 1015.11 1015.34 1016.23 1015.97 1015.67 1015.68 1015.69 1015.62 1015.64 1015.67 1015.58 1015.47 1015.31 1015.20 1015.16 1015.07 1015.07
1014.14 1015.12 1015.46 1015.69 1015.87 1015.98 1016.13 1016.13 1015.98 1015.97 1015.23 1015.45 1015.54 1015.38 1015.32 1015.26 1015.41 1016.27 1016.56 1016.26 1015.91 1015.94 1015.89 1016.09 1016.10 1016.05 1015.99 1015.85 1015.80 1015.75 1015.72 1015.64 1015.51
1014.44 1014.86 1015.10 1015.23 1015.64 1015.57 1015.83 1015.81 1015.56 1015.76 1015.69 1015.69 1015.53 1015.80 1015.64 1015.56 1015.63 1016.64 1016.85 1016.57 1016.35 1016.17 1016.24 1016.47 1016.46 1016.38 1016.28 1016.23 1016.31 1016.23 1016.11 1016.03 1015.94
1013.76 1013.87 1014.07 1014.59 1014.94 1015.49 1015.84 1015.57 1015.81 1015.83 1015.82 1015.96 1015.95 1015.85 1015.92 1015.93 1015.98 1016.95 1017.16 1016.78 1016.67 1016.48 1016.64 1016.77 1016.92 1016.76 1016.63 1016.58 1016.62 1016.59 1016.38 1016.24 1016.10
1013.46 1013.58 1014.18 1015.02 1015.50 1015.68 1015.41 1015.59 1015.79 1015.89 1016.01 1016.01 1016.12 1015.98 1015.90 1016.06 1016.23 1016.65 1017.23 1017.20 1017.09 1016.98 1017.12 1017.15 1017.26 1017.13 1017.01 1016.86 1016.74 1016.72 1016.57 1016.40 1016.29
1013.34 1014.18 1014.87 1015.42 1015.54 1015.66 1015.64 1015.87 1015.94 1015.98 1016.13 1016.22 1016.24 1016.28 1016.14 1016.29 1016.49 1016.54 1017.29 1017.70 1017.52 1017.43 1017.53 1017.51 1017.59 1017.45 1017.27 1017.09 1016.93 1016.80 1016.69 1016.53 1016.42
1013.76 1014.62 1015.20 1015.44 1015.59 1015.70 1015.88 1016.10 1016.16 1016.12 1016.24 1016.20 1016.27 1016.41 1016.45 1016.52 1016.55 1016.84 1016.84 1017.65 1017.81 1017.81 1017.89 1017.90 1017.80 1017.63 1017.45 1017.25 1017.02 1016.85 1016.70 1016.58 1016.42
1013.93 1014.73 1015.24 1015.47 1015.71 1015.78 1016.01 1016.29 1016.38 1016.50 1016.47 1016.31 1016.22 1016.44 1016.44 1016.56 1016.66 1017.01 1017.10 1017.37 1017.33 1017.87 1018.01 1018.13 1018.02 1017.86 1017.66 1017.38 1017.12 1016.94 1016.81 1016.65 1016.48
1013.97 1014.72 1015.09 1015.39 1015.64 1015.94 1016.28 1016.60 1016.77 1016.83 1016.80 1016.65 1016.40 1016.40 1016.56 1016.50 1016.69 1016.91 1017.31 1017.51 1017.71 1017.69 1017.95 1018.02 1017.87 1017.70 1017.60 1017.43 1017.24 1017.06 1016.92 1016.71 1016.45
1013.80 1014.47 1015.04 1015.39 1015.92 1016.18 1016.45 1016.72 1017.13 1017.34 1017.25 1016.84 1016.52 1016.55 1016.71 1016.74 1016.84 1016.88 1017.15 1017.18 1017.74 1017.78 1017.87 1017.85 1017.52 1017.36 1017.35 1017.32 1017.18 1017.17 1016.97 1016.72 1016.50
1014.15 1014.56 1015.12 1015.37 1016.00 1016.26 1016.53 1016.92 1017.09 1017.46 1017.49 1016.99 1016.58 1016.36 1016.64 1016.82 1016.81 1016.93 1016.97 1016.92 1017.42 1017.58 1017.58 1017.68 1017.55 1017.40 1017.31 1017.10 1017.11 1017.13 1016.92 1016.68 1016.42
1014.30 1014.77 1015.18 1015.57 1016.49 1016.55 1016.84 1016.95 1017.30 1017.68 1017.88 1017.64 1017.12 1016.52 1016.44 1016.49 1016.69 1016.69 1017.05 1017.04 1017.07 1017.26 1017.49 1017.63 1017.55 1017.43 1017.29 1017.14 1017.04 1016.94 1016.87 1016.74 1016.35
1014.25 1014.83 1015.34 1015.90 1016.57 1016.85 1017.12 1017.34 1017.36 1017.60 1018.08 1018.17 1017.86 1017.31 1016.94 1016.89 1016.29 1016.72 1016.94 1017.07 1017.03 1017.27 1017.38 1017.38 1017.26 1017.21 1017.08 1016.92 1016.79 1016.81 1016.83 1016.65 1016.26
1014.57 1015.15 1015.68 1016.17 1016.74 1017.05 1017.36 1017.56 1017.77 1017.86 1018.09 1018.25 1018.40 1018.44 1018.31 1017.98 1017.29 1016.85 1017.04 1016.84 1017.16 1017.11 1016.94 1016.92 1016.95 1016.89 1016.73 1016.60 1016.58 1016.49 1016.51 1016.33 1015.95
1014.81 1014.87 1015.81 1016.17 1016.77 1017.10 1017.48 1017.79 1018.04 1018.35 1018.33 1018.42 1018.55 1018.40 1018.41 1018.41 1018.39 1017.58 1017.15 1017.04 1016.87 1016.87 1016.69 1016.69 1016.51 1016.50 1016.40 1016.42 1016.39 1016.29 1016.36 1016.10 1015.72
Wind_Speed
9 9 9 9 9 9 8 8 7 6 5 4 4 4 4 8 4 3 4 2 6 6 6 6 7 7 7 6 8 9 7 8 8
8 9 8 7 7 6 6 5 4 4 3 3 3 3 4 7 4 3 3 8 6 7 9 7 7 8 9 9 10 11 10 10 9
8 9 8 6 5 3 3 4 4 4 3 4 4 4 5 7 3 5 3 9 8 8 9 10 10 10 10 10 11 12 12 11 11
11 11 8 6 4 4 4 4 5 3 4 5 4 3 5 7 6 6 7 12 10 9 10 10 9 11 9 11 8 10 15 14 13
10 10 8 6 4 4 4 5 4 5 6 5 3 4 8 6 3 4 7 11 9 10 10 10 10 12 14 15 13 13 14 14 11
10 8 9 6 5 4 5 6 5 5 6 3 2 7 4 5 4 7 12 9 8 9 10 11 12 13 13 13 13 13 13 13 13
4 8 7 5 5 6 6 4 3 7 0 2 4 4 5 3 4 7 10 8 6 8 8 12 12 12 12 11 13 13 13 13 13
5 6 5 7 8 5 4 2 1 4 4 4 4 4 4 4 3 8 10 9 7 6 10 11 12 12 11 12 13 13 13 13 13
7 5 5 3 3 4 2 1 2 2 3 4 5 4 3 3 2 8 9 7 7 9 9 11 11 12 11 11 12 13 13 12 12
6 5 4 4 3 2 2 1 2 3 4 3 5 5 5 4 2 5 9 8 8 9 9 10 10 11 11 11 12 12 13 12 12
5 5 5 4 3 2 1 2 2 3 4 5 5 5 4 3 2 2 7 8 7 8 8 9 9 10 11 12 12 12 13 12 12
8 6 5 4 2 4 3 2 2 2 3 5 4 4 5 2 1 1 2 7 6 6 6 8 9 10 12 13 13 13 13 13 13
8 6 5 5 4 3 3 2 1 2 3 4 4 3 3 5 2 1 1 1 0 5 3 5 8 9 12 13 13 13 14 14 14
8 7 6 6 4 4 3 3 2 2 3 4 3 3 4 2 1 3 2 1 3 4 4 2 8 8 12 12 13 14 14 15 15
9 7 6 6 4 4 4 4 3 3 4 5 4 1 2 1 3 4 3 1 2 4 4 5 5 9 10 12 12 12 15 15 15
10 7 6 6 4 5 5 4 3 4 5 4 3 3 3 4 4 3 4 3 4 4 4 4 5 6 13 12 10 14 13 14 17
10 8 5 6 5 6 4 3 3 3 4 3 3 2 3 3 3 3 1 4 3 4 5 8 8 6 6 6 14 11 13 16 18
9 8 6 7 5 4 5 4 3 2 2 4 3 2 2 5 2 3 3 4 4 5 6 8 7 8 7 8 8 13 14 16 21
10 6 6 6 5 6 5 4 4 1 2 1 2 2 3 3 5 2 3 4 5 8 6 7 8 9 6 9 12 15 15 20 24
11 9 6 7 5 5 6 5 4 2 2 1 2 2 3 5 4 8 5 6 6 7 7 6 7 8 7 6 8 14 17 22 25
Wind_Direction
117 107 101 94 87 80 72 67 58 49 39 31 19 18 355 304 275 355 99 337 31 344 339 321 307 304 314 269 284 281 284 285 291
131 123 110 102 91 78 64 53 46 34 20 11 9 358 318 293 321 338 12 62 10 332 325 325 317 304 293 286 284 281 276 281 278
169 144 130 120 104 79 58 39 30 16 16 7 351 327 309 300 291 345 4 36 351 327 310 315 314 316 287 281 282 282 274 273 274
190 151 142 132 109 76 50 29 25 12 40 40 28 336 284 286 21 336 44 8 355 32 27 30 19 7 3 18 345 316 286 275 268
125 139 140 125 96 71 59 42 58 73 75 50 15 297 268 282 350 39 31 352 14 27 37 18 23 38 41 41 43 35 33 30 3
167 91 114 111 94 75 69 78 96 121 121 125 311 288 17 354 13 56 14 1 14 36 26 44 41 35 35 34 35 32 30 32 31
116 114 125 130 123 105 103 108 199 217 337 109 223 2 354 352 14 67 10 358 9 30 59 47 35 28 24 32 29 22 17 15 17
178 154 174 178 184 172 180 172 15 24 8 354 358 358 340 344 24 62 25 15 15 45 62 39 31 26 22 31 21 13 10 6 5
180 185 162 102 106 114 132 210 35 11 4 4 338 349 338 344 5 78 33 11 37 53 53 41 29 25 20 16 9 2 358 357 355
175 156 128 112 126 148 149 61 20 9 351 346 332 329 332 342 343 92 58 50 53 55 51 39 28 22 12 5 359 352 347 343 341
159 122 127 131 154 118 67 44 35 1 345 331 328 326 325 325 333 358 98 63 55 62 49 37 23 13 3 355 347 341 336 330 330
150 149 150 135 126 140 127 88 16 348 332 308 329 322 329 315 299 290 56 136 92 67 40 21 10 4 355 344 335 330 327 322 321
154 146 141 147 150 131 107 55 10 338 335 331 327 298 294 284 260 247 192 54 339 147 100 3 342 342 340 335 332 328 329 322 317
148 146 147 153 142 127 120 87 18 4 348 314 312 336 313 253 235 216 191 159 298 335 154 230 291 304 325 329 327 326 326 322 316
145 140 144 139 143 133 122 117 85 25 352 321 308 2 311 274 233 217 231 250 263 296 326 302 311 322 323 319 321 326 324 322 319
142 135 137 141 157 131 128 118 85 51 355 284 342 203 180 245 239 224 259 224 246 283 296 313 327 321 322 320 323 322 322 322 322
142 134 133 127 145 127 122 117 114 84 21 349 267 338 176 177 221 234 303 286 316 303 319 324 315 312 316 304 315 311 320 321 319
134 130 138 137 144 126 117 104 57 101 92 26 338 307 317 358 247 235 267 296 294 315 311 303 310 310 309 306 314 315 313 311 316
125 121 126 133 136 131 121 100 89 326 72 174 54 340 347 315 313 9 264 289 307 285 299 299 304 305 293 307 302 306 305 310 313
135 128 143 141 137 124 117 113 94 62 351 30 340 296 251 246 259 291 287 301 303 312 295 276 291 291 299 303 300 301 306 306 306